[[{"header":{"parameterUnit":"m.s-1","parameterCategory":1,"la1":30.2991,"la2":30.254,"lo1":-89.0895,"lo2":-89.0444,"dy":0.0017,"dx":0.0017,"nx":28,"ny":28,"refTime":"2023-08-13T21:00:00:Z","depth":0,"parameterNumber":2,"parameterNumberName":"U-component_of_WINDS"},"data":[0,0,0,0,0,0,0,0,0,0,0,0,0,0,0,0,0,0,0,0,0,0,0,0,0,0,0,0,0,0,0,0,0,0,0,0,0,0,0,0,0,0,0,0,0,0,0,0,0,0,0,0,0,0,0,0,0,0,3.208,3.2081,0,3.2134,3.2134,3.2135,3.2133,3.2132,3.2132,3.2131,3.2186,3.2188,3.2191,0,0,0,0,0,0,0,0,0,0,0,0,0,3.1979,3.1981,3.208,3.2081,3.2082,3.2134,3.2134,3.2135,3.2133,3.2132,3.2131,3.2131,3.2186,3.2188,3.2191,0,0,0,0,0,0,0,0,0,0,0,0,0,3.2027,3.1982,3.208,3.2087,3.2088,3.2133,3.2134,3.2135,3.2133,3.2132,3.2131,3.213,3.2185,3.2188,3.2191,3.2234,0,0,3.2201,3.2203,0,0,0,0,0,0,0,0,3.2024,3.2031,3.2085,3.2087,3.2088,3.2126,3.2119,3.2168,3.2134,3.2116,3.2131,3.213,3.2167,3.2172,3.2184,3.2236,3.2238,3.2201,3.2203,3.2205,3.2206,0,0,0,0,0,0,0,3.2021,3.2028,3.2101,3.2086,3.2088,3.2088,3.2094,3.2128,3.2147,3.2118,3.2118,3.2124,3.2168,3.2181,3.2186,3.2239,3.2201,3.2204,3.2206,3.2207,3.2331,3.2332,0,0,0,0,0,0,3.2016,3.2026,3.21,3.2103,3.2053,3.2091,3.2097,3.2115,3.2147,3.2151,3.2125,3.2124,3.2176,3.2182,3.2187,3.224,3.2205,3.2208,3.221,3.233,3.2331,3.2333,0,0,0,0,0,0,3.2014,3.2023,3.2098,3.2064,3.2074,3.2094,3.2114,3.2116,3.213,3.2152,3.2156,3.2135,3.2175,3.2183,3.2223,3.2242,3.2209,3.2212,3.2328,3.233,3.2332,3.2346,0,0,0,0,0,0,3.2011,3.2022,3.2037,3.2065,3.2076,3.2131,3.2115,3.2118,3.2135,3.2134,3.2163,3.2166,3.2175,3.2218,3.2226,3.2246,3.2215,3.2326,3.2329,3.2331,3.2344,3.2348,3.2352,0,0,0,0,0,3.2007,3.2039,3.2038,3.2047,3.2096,3.2132,3.2139,3.2148,3.2137,3.2153,3.2168,3.2166,3.2239,3.2222,3.2231,3.2252,3.2325,3.2328,3.2331,3.2342,3.2347,3.2352,0,0,0,0,0,0,3.2013,3.2042,3.2042,3.2083,3.2105,3.2132,3.2152,3.2153,3.2178,3.2176,3.2187,3.2193,3.2233,3.2247,3.2227,3.2296,3.2281,3.2286,3.2286,3.2291,3.2295,3.2291,3.2217,0,0,0,0,0,3.2019,3.2046,3.207,3.2104,3.2116,3.2132,3.2148,3.2154,3.2177,3.2186,3.2204,3.2227,3.2256,3.2274,3.2301,3.2346,3.2353,3.2365,3.2369,3.2373,3.2377,3.2403,3.2409,3.2343,3.2342,3.2342,0,0,3.2032,3.2051,3.2067,3.2106,3.2124,3.2152,3.214,3.217,3.2192,3.2191,3.223,3.2244,3.2271,3.2313,3.2333,3.2326,3.2397,3.2376,3.2379,3.2381,3.2407,3.2413,3.2418,3.2345,3.2344,3.2344,0,0,3.2069,3.2086,3.2117,3.2136,3.2163,3.2174,3.2182,3.2209,3.2218,3.2257,3.2258,3.2284,3.2333,3.2352,3.2368,3.2416,3.2415,3.2425,3.2446,3.2471,3.2476,3.2481,3.2499,3.2505,3.2429,3.2429,3.2429,0,3.2082,3.2124,3.2133,3.2164,3.2182,3.2183,3.2216,3.2233,3.2268,3.228,3.2272,3.2334,3.2352,3.24,3.2412,3.2425,3.2435,3.2421,3.2475,3.248,3.2484,3.2501,3.2508,3.243,3.243,3.243,3.243,0,3.2138,3.2168,3.219,3.2224,3.2244,3.2275,3.2291,3.231,3.2314,3.2327,3.2368,3.239,3.2422,3.2434,3.2438,3.2483,3.2478,3.2472,3.2457,3.2491,3.2508,3.2514,3.2431,3.2431,3.2431,3.243,0,0,3.218,3.222,3.2228,3.2244,3.2275,3.2299,3.2331,3.2363,3.238,3.2405,3.2432,3.2474,3.247,3.2488,3.2495,3.2517,3.2555,3.2509,3.2509,3.2517,3.2608,3.2612,3.262,3.2555,3.2556,3.2557,3.2606,0,3.2221,3.2278,3.2288,3.2338,3.2366,3.2369,3.2398,3.242,3.2434,3.246,3.2475,3.2505,3.2496,3.2507,3.2529,3.2546,3.2573,3.2542,3.2582,3.2583,3.2575,3.2628,3.2632,3.2677,3.2612,3.2613,3.2614,0,3.2277,3.2303,3.2356,3.2385,3.2397,3.2422,3.2453,3.2478,3.2505,3.2513,3.2535,3.254,3.2575,3.2558,3.2607,3.2586,3.2603,3.2614,3.2616,3.262,3.2601,3.2634,3.2691,3.2698,3.2624,3.2623,3.2623,0,3.2303,3.2352,3.239,3.2403,3.2438,3.2456,3.2471,3.2497,3.2516,3.2544,3.2556,3.2588,3.2605,3.263,3.2643,3.263,3.2692,3.2676,3.27,3.27,3.2713,3.2712,3.2774,3.2723,3.2723,3.2723,3.2723,0,3.2348,3.238,3.2402,3.2426,3.2462,3.2475,3.2511,3.2527,3.255,3.2577,3.2582,3.2607,3.2624,3.2652,3.2663,3.2703,3.271,3.2719,3.2721,3.2718,3.2717,3.2729,3.2727,3.2725,3.2725,3.2724,3.2724,0,3.2383,3.2399,3.2441,3.247,3.2479,3.2505,3.2531,3.2554,3.2568,3.2603,3.2612,3.2634,3.2668,3.2684,3.2726,3.2733,3.2779,3.2779,3.2769,3.277,3.2794,3.2792,3.2866,3.2877,3.2819,3.282,3.282,0,3.241,3.2436,3.2469,3.2487,3.2503,3.2533,3.2553,3.2567,3.2588,3.2621,3.2641,3.2675,3.2703,3.2758,3.2778,3.281,3.2812,3.2836,3.2817,3.2814,3.2813,3.2811,3.2815,3.2839,3.284,3.284,3.284,0,3.2459,3.2466,3.2494,3.2526,3.255,3.2575,3.26,3.2616,3.2634,3.2657,3.2692,3.2714,3.2757,3.2792,3.2826,3.2843,3.2845,3.2847,3.2854,3.2851,3.2845,3.285,3.2779,3.2845,3.2844,3.2844,3.2844,3.2843,3.2491,3.2514,3.2542,3.2574,3.2594,3.2618,3.2642,3.266,3.2689,3.2725,3.2732,3.2769,3.2797,3.2844,3.2862,3.2892,3.2887,3.2897,3.29,3.2902,3.2904,3.284,3.2898,3.2898,3.2898,3.2898,3.2898,0,3.254,3.2558,3.2588,3.2623,3.2649,3.2649,3.2678,3.2699,3.2732,3.2758,3.2785,3.2826,3.286,3.2884,3.2918,3.2938,3.294,3.2947,3.2946,3.295,3.2907,3.2897,3.2945,3.2945,3.2945,3.2945,3.2945,3.2945,3.2569,3.2608,3.2619,3.2669,3.2687,3.2724,3.274,3.2763,3.2784,3.2829,3.2857,3.2872,3.2898,3.2935,3.2966,3.2973,3.2985,3.2992,3.2998,3.2957,3.2953,3.2948,3.2939,3.2995,3.2995,3.3039,3.3039,3.304]},{"header":{"parameterUnit":"m.s-1","parameterCategory":1,"la1":30.2991,"la2":30.254,"lo1":-89.0895,"lo2":-89.0444,"dy":0.0017,"dx":0.0017,"nx":28,"ny":28,"refTime":"2023-08-13T21:00:00:Z","depth":0,"parameterNumber":3,"parameterNumberName":"V-component_of_WINDS"},"data":[0,0,0,0,0,0,0,0,0,0,0,0,0,0,0,0,0,0,0,0,0,0,0,0,0,0,0,0,0,0,0,0,0,0,0,0,0,0,0,0,0,0,0,0,0,0,0,0,0,0,0,0,0,0,0,0,0,0,-0.7363,-0.7363,0,-0.7403,-0.7403,-0.7404,-0.742,-0.742,-0.742,-0.7419,-0.746,-0.7461,-0.7462,0,0,0,0,0,0,0,0,0,0,0,0,0,-0.73,-0.7301,-0.7362,-0.7363,-0.7363,-0.7403,-0.7403,-0.7404,-0.742,-0.742,-0.742,-0.7419,-0.746,-0.7461,-0.7463,0,0,0,0,0,0,0,0,0,0,0,0,0,-0.7333,-0.7302,-0.7362,-0.7376,-0.7378,-0.7403,-0.7403,-0.7404,-0.742,-0.742,-0.7419,-0.7419,-0.7459,-0.7461,-0.7463,-0.7476,0,0,-0.7468,-0.7469,0,0,0,0,0,0,0,0,-0.7331,-0.7335,-0.7374,-0.7375,-0.7377,-0.7406,-0.7396,-0.7428,-0.742,-0.7404,-0.7419,-0.7419,-0.7442,-0.7445,-0.7453,-0.7478,-0.748,-0.7468,-0.7469,-0.747,-0.7471,0,0,0,0,0,0,0,-0.7328,-0.7333,-0.7378,-0.7374,-0.7376,-0.7381,-0.7385,-0.7402,-0.7423,-0.7405,-0.7406,-0.7411,-0.7443,-0.7451,-0.7454,-0.7481,-0.7468,-0.747,-0.7471,-0.7472,-0.7521,-0.7521,0,0,0,0,0,0,-0.7324,-0.7331,-0.7377,-0.738,-0.7353,-0.7382,-0.7387,-0.7397,-0.7423,-0.7427,-0.7411,-0.7412,-0.7449,-0.7452,-0.7456,-0.7475,-0.747,-0.7472,-0.7473,-0.7521,-0.7521,-0.7521,0,0,0,0,0,0,-0.7322,-0.7328,-0.7375,-0.7356,-0.7362,-0.7383,-0.7394,-0.7398,-0.7406,-0.7428,-0.7431,-0.7416,-0.7449,-0.7453,-0.7472,-0.7476,-0.7472,-0.7474,-0.752,-0.7521,-0.7521,-0.7512,0,0,0,0,0,0,-0.7321,-0.7327,-0.7332,-0.7356,-0.7363,-0.739,-0.7395,-0.7399,-0.7409,-0.741,-0.7433,-0.7437,-0.7449,-0.7469,-0.7473,-0.7479,-0.7475,-0.752,-0.7521,-0.7521,-0.7512,-0.7512,-0.7512,0,0,0,0,0,-0.7318,-0.7328,-0.7333,-0.7338,-0.737,-0.7391,-0.7395,-0.7409,-0.7409,-0.7415,-0.7429,-0.7436,-0.7475,-0.7471,-0.7476,-0.7482,-0.752,-0.752,-0.7521,-0.7512,-0.7512,-0.7512,0,0,0,0,0,0,-0.7304,-0.7331,-0.7337,-0.7354,-0.737,-0.7393,-0.7401,-0.7408,-0.7424,-0.7424,-0.7441,-0.7446,-0.7463,-0.7474,-0.7469,-0.7497,-0.7498,-0.75,-0.7489,-0.749,-0.749,-0.7487,-0.7477,0,0,0,0,0,-0.7303,-0.7317,-0.734,-0.7353,-0.7361,-0.7379,-0.7389,-0.7398,-0.7416,-0.7422,-0.7438,-0.7454,-0.747,-0.7481,-0.7497,-0.7514,-0.752,-0.7521,-0.7521,-0.752,-0.7522,-0.7533,-0.7534,-0.7523,-0.7523,-0.7523,0,0,-0.73,-0.7317,-0.7325,-0.7351,-0.7364,-0.7379,-0.7385,-0.74,-0.7412,-0.7425,-0.7443,-0.7455,-0.7475,-0.7493,-0.7502,-0.7503,-0.7526,-0.7521,-0.7521,-0.7522,-0.7534,-0.7535,-0.7536,-0.7524,-0.7524,-0.7524,0,0,-0.7304,-0.7317,-0.733,-0.7344,-0.7365,-0.7377,-0.7381,-0.7403,-0.7412,-0.7431,-0.7442,-0.7456,-0.7483,-0.7497,-0.7507,-0.7518,-0.7525,-0.7523,-0.7523,-0.7534,-0.7534,-0.7535,-0.754,-0.7541,-0.7524,-0.7524,-0.7524,0,-0.7298,-0.7321,-0.7336,-0.7351,-0.7363,-0.7376,-0.739,-0.7402,-0.7427,-0.7435,-0.7436,-0.7471,-0.7485,-0.7507,-0.751,-0.7518,-0.7523,-0.752,-0.7533,-0.7534,-0.7535,-0.754,-0.7541,-0.7523,-0.7523,-0.7523,-0.7523,0,-0.7313,-0.7329,-0.7337,-0.7362,-0.7374,-0.7388,-0.7406,-0.7417,-0.7426,-0.7438,-0.7458,-0.7476,-0.7496,-0.7502,-0.751,-0.7526,-0.7526,-0.753,-0.7531,-0.7536,-0.754,-0.7542,-0.7523,-0.7523,-0.7523,-0.7523,0,0,-0.7308,-0.7342,-0.7344,-0.7356,-0.7381,-0.7393,-0.7409,-0.7429,-0.7439,-0.7456,-0.747,-0.7493,-0.7497,-0.7509,-0.7519,-0.7529,-0.7537,-0.7532,-0.7532,-0.7533,-0.7557,-0.7555,-0.7556,-0.7542,-0.7543,-0.7543,-0.7556,0,-0.7315,-0.7343,-0.7358,-0.738,-0.7396,-0.7409,-0.7423,-0.744,-0.7452,-0.7467,-0.7481,-0.7498,-0.7502,-0.7509,-0.7519,-0.7534,-0.7543,-0.7533,-0.7556,-0.7557,-0.7551,-0.7559,-0.7556,-0.7567,-0.7558,-0.7558,-0.7558,0,-0.7327,-0.7345,-0.7368,-0.7393,-0.74,-0.7412,-0.7433,-0.7447,-0.7466,-0.7475,-0.7489,-0.75,-0.7517,-0.7517,-0.7542,-0.7536,-0.7546,-0.7555,-0.7555,-0.7558,-0.7558,-0.7562,-0.757,-0.7572,-0.7561,-0.7561,-0.7561,0,-0.7322,-0.7351,-0.737,-0.7379,-0.7408,-0.7416,-0.7429,-0.7448,-0.746,-0.7478,-0.7486,-0.7506,-0.7517,-0.7532,-0.7548,-0.7547,-0.7572,-0.7573,-0.758,-0.758,-0.7585,-0.7584,-0.7595,-0.759,-0.759,-0.759,-0.759,0,-0.7328,-0.7343,-0.7368,-0.7379,-0.7396,-0.7413,-0.743,-0.7443,-0.7461,-0.7475,-0.7488,-0.7502,-0.7521,-0.7538,-0.755,-0.7569,-0.7574,-0.7582,-0.7585,-0.7581,-0.758,-0.7588,-0.7588,-0.7591,-0.7591,-0.7591,-0.7591,0,-0.7325,-0.7343,-0.7364,-0.739,-0.7396,-0.7408,-0.743,-0.7442,-0.7456,-0.7474,-0.7479,-0.7501,-0.7521,-0.7538,-0.7564,-0.7573,-0.7593,-0.7596,-0.7586,-0.7588,-0.7595,-0.7594,-0.7611,-0.7615,-0.7607,-0.7607,-0.7607,0,-0.7328,-0.734,-0.7367,-0.7378,-0.739,-0.7408,-0.742,-0.7438,-0.7451,-0.7475,-0.7484,-0.7505,-0.7523,-0.7554,-0.7572,-0.7593,-0.7597,-0.7602,-0.76,-0.7596,-0.7598,-0.7598,-0.7599,-0.7602,-0.7602,-0.7602,-0.7602,0,-0.7333,-0.7341,-0.7359,-0.738,-0.7395,-0.7412,-0.743,-0.7438,-0.7459,-0.7473,-0.7494,-0.7508,-0.7535,-0.7556,-0.7579,-0.7592,-0.7601,-0.7602,-0.7605,-0.7601,-0.7595,-0.76,-0.7587,-0.7602,-0.7602,-0.7602,-0.7602,-0.7602,-0.7333,-0.7344,-0.7366,-0.7386,-0.7401,-0.7418,-0.7431,-0.7447,-0.7464,-0.7488,-0.7498,-0.7519,-0.754,-0.7572,-0.7585,-0.7602,-0.7604,-0.7608,-0.7609,-0.761,-0.7609,-0.7592,-0.7606,-0.7606,-0.7607,-0.7607,-0.7607,0,-0.7339,-0.7354,-0.7371,-0.7396,-0.7412,-0.742,-0.744,-0.7453,-0.7472,-0.7491,-0.7508,-0.7533,-0.7554,-0.7574,-0.7596,-0.7606,-0.7611,-0.7612,-0.7611,-0.7614,-0.7606,-0.7602,-0.7607,-0.7607,-0.7607,-0.7607,-0.7607,-0.7607,-0.7343,-0.7363,-0.7375,-0.7403,-0.7418,-0.7439,-0.7451,-0.7466,-0.7482,-0.7509,-0.7526,-0.754,-0.756,-0.7584,-0.7603,-0.7609,-0.7617,-0.7616,-0.7623,-0.7615,-0.7615,-0.7614,-0.761,-0.7617,-0.7617,-0.7629,-0.7629,-0.7629]}]]